Vertical_Velocity
1 1 0 0 -0 1 0 1 -1 -1 -2 -0 0 -0 -1 -1 -1 -1 -1 -0 -1 0 -1 -0 -0 1 0 0 0 -0 1 0 -0 -0 -1 -1 -1 -3 -0 1 -1 -1 0 -0 -0 -1 -2
1 2 2 1 0 0 -1 -0 -0 -0 -1 -1 0 -0 -1 -1 -1 -0 -0 -1 -0 -1 -0 -2 -2 -1 -1 -1 -1 -0 0 -1 -3 -2 -2 -1 -1 -1 -3 -4 -2 -3 -2 -3 -2 -1 -2
-4 -3 -3 -1 2 2 1 0 -0 0 -1 -1 -1 -1 -0 0 0 1 -0 -0 0 -0 -1 -1 -1 0 -1 0 0 -1 -1 -0 -0 -0 -0 -0 -1 -0 1 -0 -3 0 -1 -2 1 1 -3
-3 -1 2 -1 -4 -2 -1 -0 -0 -0 -1 -2 -1 -0 -0 -1 -1 -1 -0 -0 -1 -1 -0 -1 -1 0 1 -0 -1 -1 0 0 0 1 -1 0 0 1 -0 0 -1 0 -2 1 -2 0 0
-3 -5 -3 1 3 1 -0 -1 -2 1 1 -0 -1 -1 -0 -0 -0 -1 -0 -1 -0 0 0 -1 0 0 -1 -0 0 -1 -1 -1 1 -0 -2 -0 -1 0 1 1 -1 -2 -1 -2 -0 3 3
3 3 -3 -5 -3 0 -1 -2 -1 -2 -1 1 2 1 -1 -1 -2 -1 -0 -0 0 1 -0 -0 -1 0 1 -2 -2 -1 1 1 -0 -1 -1 -0 1 0 1 3 -1 5 1 -2 -2 -5 3
-4 -4 -1 -6 -7 -1 0 2 -2 -4 -3 -2 1 -1 -1 -2 -1 -0 -2 -1 -1 -2 0 3 1 1 -0 1 -0 1 0 -2 1 1 -1 -1 0 0 -2 -2 -2 -1 1 -3 -2 2 -1
1 6 2 -2 -1 -7 -4 -5 -2 -1 -3 -3 -3 1 0 -1 -2 -2 -1 -2 -1 1 -2 1 1 -1 -0 -0 -0 0 -0 3 0 -1 -2 -2 -2 -1 1 -0 -1 -1 -1 -5 -5 1 -1
-0 -0 -2 -1 -2 -2 -5 -1 2 -3 -3 -2 -1 -4 -2 -1 -1 -1 -3 -1 -1 0 1 -0 -1 0 0 1 -0 0 -1 1 2 -0 -1 -2 -1 -2 -2 -2 -1 -2 -2 0 1 -3 -6
-3 -2 0 1 -4 -3 -1 -2 -3 -2 -2 -3 -4 -1 -5 -3 0 -1 -1 -2 0 -0 -0 -1 -1 -1 0 2 2 0 0 -0 -0 -2 0 0 -1 -1 -1 -3 3 1 -4 1 1 2 2
-1 -0 -2 -3 2 -5 -4 -2 -0 -0 -2 -0 -2 -2 -1 -4 -3 -2 -2 -1 -1 2 0 1 -1 -1 0 -1 -1 -1 -2 -2 2 -1 -1 -2 -0 -0 -3 -1 2 0 2 2 1 -2 5
-1 -1 -0 0 -1 -0 -1 -5 -4 -3 -3 -2 1 -3 -0 0 -2 -3 -2 -2 -1 1 -2 -1 -0 -1 -1 -0 -2 -1 0 -2 1 -1 -3 1 1 -3 2 4 6 2 3 -0 -1 1 6
1 2 2 -2 -3 -2 -1 -2 -4 -3 -2 -2 -2 -1 -0 -1 -2 -1 -2 -0 -1 1 -2 -2 -1 -0 -1 -1 -1 0 2 -0 -0 -2 -0 -0 -2 -0 1 2 0 2 4 1 6 6 -8
1 -4 2 1 3 -0 -0 -1 -2 -2 -3 -1 -1 -3 -3 -1 -0 -1 -2 1 1 -1 -0 -0 -1 -0 0 1 -2 1 1 0 -2 -0 -4 -1 -2 1 1 3 0 2 2 5 0 2 -10
-0 3 1 1 0 -1 -3 -0 0 -1 -2 -1 -0 -3 -2 -2 0 -0 -1 1 -1 -0 -1 -1 -2 -1 -2 -1 0 1 -2 -2 -2 -0 -1 -3 -1 5 8 3 6 7 0 9 2 -8 20
-1 -1 0 2 1 2 -0 -1 -2 -2 -1 -1 -4 -2 -0 1 -2 1 -1 -0 -1 0 0 -1 0 -1 0 -1 -0 -0 -3 -2 -1 -2 -0 -2 -15 -2 2 3 4 9 4 -2 3 4 -2
1 1 1 -0 -1 -0 3 -0 -0 -3 -1 -1 2 0 -0 -0 2 -1 1 -2 -1 -0 -0 -2 -1 0 -2 -2 -2 0 -1 -2 1 -0 3 2 5 -6 -1 12 6 -13 -10 4 21 0 6
2 -1 0 -1 1 1 2 -1 2 -2 -2 -1 -2 -0 -1 -2 2 -0 1 -0 -2 1 -1 -2 -3 0 3 1 0 -1 -2 1 0 -1 -3 -3 -1 -12 -3 -2 -6 -5 16 3 4 -7 -1
4 -3 2 -1 -1 -1 -3 2 -1 -3 1 2 -1 -2 -1 -1 -2 0 -2 -1 -2 -1 1 0 1 1 0 -1 -2 -0 0 -0 -1 -3 0 -3 10 -7 -25 21 9 1 -4 19 15 7 -15
-0 -1 -0 2 -1 -4 4 -1 2 -4 -2 2 -3 1 -2 -1 2 -0 -1 -2 1 -2 -1 -0 -1 1 1 0 -0 -1 0 -1 -1 -2 -1 1 -0 1 2 -11 10 -0 1 1 9 7 -8
-0 -1 -1 2 1 -3 2 2 -1 -2 1 -3 1 1 -1 -2 -3 -3 2 -0 -1 -0 1 1 -1 -1 -1 -1 -1 -1 0 -2 -2 -1 -1 -4 -5 -1 -6 3 -1 2 5 7 -8 -1 8
0 0 1 0 2 1 1 1 -2 -1 2 -2 -1 -1 2 -2 0 1 -1 -1 2 1 4 1 -1 -0 1 1 0 -3 -2 -2 -3 -2 1 0 1 -3 -12 -2 6 6 -6 3 3 -4 0
1 -0 -0 1 1 -3 -3 -1 -1 -1 1 5 -3 1 -0 -1 -1 1 -1 -1 -1 2 1 1 2 0 -0 -1 -1 0 2 2 2 1 0 -1 -2 -2 -9 -1 -9 12 -1 -4 -1 -2 2
0 -1 -5 0 3 4 -3 2 -7 -2 -4 9 -1 -2 -0 -1 2 2 1 1 -1 -1 -1 -1 -2 1 1 -1 -1 -3 -1 0 2 0 0 1 -1 1 -4 0 1 5 0 -1 -0 -2 1
3 1 -7 1 3 -7 -1 -3 -2 2 -3 4 1 -2 1 -3 -1 0 -0 1 1 -2 -1 -2 -1 -1 -2 -4 -3 -1 3 1 2 1 -1 -2 2 -3 3 3 -5 -1 -3 -1 -3 -4 2
2 1 2 -6 5 -2 1 4 -3 -4 1 -1 -2 -1 -1 -0 -1 1 -0 2 1 1 -2 -1 0 -2 -3 -2 -2 0 1 -2 -0 3 2 1 1 3 -1 8 3 2 7 8 7 1 3
-5 -3 3 3 -0 -2 -3 -1 -2 -4 -1 -1 0 -2 -2 -1 0 0 0 -1 -1 -1 -1 1 0 -2 -2 0 0 0 2 -4 1 -2 1 3 -1 -1 1 2 -3 2 0 1 5 -16 -2
2 2 5 -5 -0 -3 -4 1 -2 -3 -2 1 0 -4 -2 -1 -0 -2 1 -1 0 0 1 0 -3 -1 -1 0 -2 -1 -2 2 -2 -0 -1 1 -3 6 -1 -2 2 -2 -4 4 -1 2 -6
-0 -3 4 -4 3 -1 -3 4 -3 -1 -3 -1 -3 -4 -3 -2 -2 -3 1 -2 -0 1 0 -1 0 -3 -3 -2 -0 -5 1 2 -0 9 -0 1 -1 0 2 -4 -2 -2 -2 0 -3 -5 -4
Height
3154 3155 3155 3156 3157 3157 3156 3155 3154 3153 3152 3152 3151 3150 3149 3148 3147 3145 3143 3142 3140 3139 3137 3136 3134 3134 3133 3133 3132 3131 3130 3130 3129 3130 3130 3130 3130 3130 3130 3129 3129 3129 3129 3129 3128 3128 3127
3152 3153 3153 3154 3155 3155 3155 3154 3153 3152 3151 3150 3150 3149 3148 3147 3145 3143 3141 3139 3138 3137 3135 3134 3133 3132 3131 3130 3129 3129 3128 3128 3128 3128 3128 3128 3128 3128 3127 3127 3127 3127 3126 3126 3125 3124 3123
3151 3152 3152 3152 3153 3153 3153 3152 3151 3150 3150 3149 3148 3147 3146 3144 3143 3141 3139 3137 3136 3134 3133 3131 3130 3129 3128 3128 3126 3125 3126 3125 3125 3125 3125 3125 3125 3125 3125 3124 3123 3123 3123 3121 3121 3121 3119
3151 3150 3150 3150 3150 3150 3150 3150 3150 3149 3149 3148 3147 3145 3144 3142 3141 3139 3137 3135 3134 3132 3130 3129 3127 3126 3124 3123 3122 3122 3122 3122 3122 3122 3122 3122 3122 3121 3121 3121 3120 3119 3119 3118 3116 3116 3114
3148 3149 3149 3149 3149 3149 3149 3148 3147 3147 3147 3146 3145 3143 3141 3140 3138 3136 3134 3133 3131 3129 3127 3125 3124 3122 3121 3119 3119 3119 3119 3119 3119 3119 3119 3119 3118 3118 3118 3118 3117 3115 3115 3113 3113 3111 3109
3147 3147 3147 3147 3147 3147 3147 3146 3146 3146 3145 3144 3143 3141 3139 3138 3135 3133 3132 3130 3128 3126 3124 3122 3120 3122 3119 3118 3117 3117 3116 3116 3116 3115 3115 3115 3114 3113 3114 3114 3114 3113 3110 3109 3109 3107 3104
3145 3145 3145 3146 3146 3147 3146 3146 3145 3143 3142 3141 3140 3139 3137 3135 3133 3131 3129 3127 3127 3123 3120 3119 3118 3116 3114 3113 3112 3112 3112 3112 3112 3112 3111 3111 3111 3110 3109 3109 3108 3108 3106 3105 3105 3104 3098
3143 3143 3144 3144 3144 3144 3145 3145 3145 3143 3141 3139 3137 3135 3134 3132 3130 3127 3124 3122 3120 3119 3116 3114 3112 3111 3110 3109 3109 3109 3109 3110 3109 3108 3108 3110 3108 3107 3106 3105 3105 3103 3102 3101 3099 3098 3095
3141 3141 3141 3141 3142 3142 3142 3141 3141 3141 3140 3138 3136 3133 3131 3128 3126 3124 3121 3119 3116 3114 3114 3112 3111 3110 3110 3110 3108 3108 3109 3108 3108 3107 3107 3107 3105 3103 3103 3102 3101 3099 3098 3097 3095 3092 3089
3138 3138 3139 3139 3140 3139 3138 3138 3138 3137 3137 3135 3133 3131 3128 3125 3125 3120 3118 3116 3114 3112 3111 3113 3111 3110 3110 3109 3109 3108 3107 3108 3106 3106 3103 3101 3099 3099 3099 3098 3097 3093 3091 3090 3088 3087 3086
3135 3134 3135 3136 3136 3136 3135 3134 3134 3133 3133 3132 3129 3127 3125 3121 3120 3118 3117 3114 3112 3111 3111 3112 3109 3108 3108 3109 3109 3107 3105 3103 3101 3100 3101 3099 3096 3095 3093 3093 3091 3089 3086 3084 3082 3081 3080
3131 3131 3132 3132 3133 3132 3132 3131 3130 3130 3129 3127 3126 3123 3121 3118 3116 3115 3113 3112 3110 3112 3107 3108 3107 3107 3107 3106 3105 3104 3102 3100 3097 3094 3093 3093 3091 3089 3086 3085 3084 3082 3080 3078 3076 3076 3072
3126 3128 3128 3128 3128 3128 3127 3127 3126 3125 3124 3123 3122 3119 3117 3115 3113 3111 3110 3109 3110 3106 3108 3107 3105 3105 3104 3103 3101 3100 3098 3096 3096 3092 3087 3085 3083 3081 3081 3080 3079 3078 3078 3075 3071 3069 3059
3122 3123 3123 3123 3124 3124 3123 3122 3122 3120 3120 3119 3117 3116 3113 3111 3109 3108 3108 3109 3106 3103 3102 3103 3102 3102 3101 3099 3098 3096 3096 3092 3090 3090 3085 3082 3078 3078 3077 3076 3077 3074 3074 3071 3061 3054 3052
3117 3117 3118 3118 3119 3119 3119 3118 3117 3117 3116 3114 3113 3111 3109 3108 3107 3106 3107 3106 3102 3101 3100 3100 3099 3097 3097 3097 3097 3094 3091 3089 3087 3086 3087 3081 3073 3073 3074 3072 3073 3071 3069 3066 3061 3056 3051
3114 3113 3114 3113 3114 3114 3114 3114 3113 3113 3111 3110 3109 3107 3106 3105 3104 3104 3103 3102 3099 3099 3097 3097 3096 3095 3094 3094 3094 3093 3087 3084 3081 3081 3079 3078 3071 3064 3067 3069 3069 3067 3065 3062 3056 3049 3038
3108 3108 3109 3109 3109 3110 3110 3110 3110 3109 3107 3105 3105 3102 3103 3102 3101 3101 3098 3097 3096 3094 3094 3095 3093 3091 3090 3089 3088 3086 3083 3080 3078 3077 3076 3075 3072 3063 3062 3066 3063 3060 3059 3058 3055 3047 3035
3103 3104 3104 3104 3104 3105 3105 3106 3106 3105 3104 3102 3101 3100 3099 3098 3099 3096 3095 3093 3094 3091 3090 3089 3088 3086 3084 3083 3082 3082 3080 3077 3075 3074 3072 3070 3068 3059 3055 3057 3055 3052 3055 3053 3050 3043 3041
3097 3098 3099 3099 3099 3100 3101 3101 3102 3100 3099 3097 3095 3095 3095 3095 3093 3092 3090 3089 3088 3087 3086 3083 3082 3080 3079 3078 3081 3075 3073 3072 3071 3070 3067 3065 3064 3059 3047 3052 3050 3050 3048 3051 3049 3045 3037
3092 3093 3093 3093 3094 3095 3095 3096 3096 3096 3095 3094 3092 3092 3091 3090 3088 3087 3086 3086 3083 3081 3079 3077 3076 3074 3073 3072 3072 3070 3069 3067 3065 3064 3061 3059 3059 3061 3059 3054 3051 3047 3046 3045 3043 3038 3029
3085 3087 3088 3088 3089 3090 3090 3091 3091 3090 3090 3090 3088 3087 3085 3085 3083 3083 3082 3080 3078 3076 3074 3072 3069 3068 3068 3067 3065 3065 3064 3063 3061 3059 3057 3057 3057 3056 3053 3050 3047 3044 3041 3038 3035 3032 3027
3080 3082 3083 3084 3084 3086 3086 3085 3086 3086 3086 3085 3084 3084 3082 3081 3079 3077 3076 3074 3071 3069 3068 3065 3065 3063 3061 3061 3061 3060 3058 3057 3057 3056 3054 3053 3054 3051 3047 3045 3044 3041 3037 3034 3030 3025 3020
3075 3076 3078 3079 3080 3081 3081 3080 3082 3082 3081 3079 3078 3078 3077 3077 3075 3073 3071 3068 3066 3064 3062 3061 3061 3059 3058 3057 3056 3055 3053 3052 3050 3050 3051 3050 3049 3049 3044 3043 3039 3036 3033 3031 3027 3022 3018
3071 3072 3073 3076 3076 3077 3076 3075 3077 3078 3078 3076 3073 3074 3073 3072 3070 3068 3065 3063 3062 3060 3059 3056 3056 3055 3056 3054 3053 3052 3050 3050 3049 3048 3048 3047 3047 3046 3042 3040 3036 3033 3031 3028 3024 3019 3015
3066 3068 3070 3072 3071 3072 3073 3071 3073 3074 3074 3072 3070 3069 3068 3066 3065 3063 3061 3058 3056 3054 3054 3052 3052 3052 3052 3053 3052 3052 3050 3049 3047 3046 3046 3045 3044 3043 3040 3036 3034 3030 3027 3024 3020 3015 3011
3063 3064 3065 3068 3067 3069 3068 3067 3069 3070 3068 3067 3065 3064 3063 3061 3059 3056 3054 3053 3051 3049 3050 3049 3048 3048 3048 3047 3048 3050 3049 3047 3049 3046 3044 3042 3040 3041 3037 3034 3028 3025 3024 3022 3017 3011 3005
3058 3060 3064 3063 3063 3064 3064 3065 3064 3064 3063 3063 3061 3059 3058 3056 3053 3051 3050 3049 3047 3045 3045 3045 3045 3045 3045 3045 3045 3047 3048 3046 3046 3044 3042 3040 3037 3035 3032 3029 3027 3021 3019 3017 3016 3012 3003
3054 3057 3060 3060 3061 3061 3061 3061 3060 3059 3059 3059 3056 3054 3053 3050 3047 3047 3045 3044 3043 3043 3043 3043 3043 3042 3042 3043 3044 3046 3046 3045 3043 3040 3038 3037 3035 3032 3030 3027 3022 3019 3016 3015 3009 3002 2996
3050 3054 3056 3058 3057 3058 3057 3056 3056 3055 3054 3054 3051 3048 3046 3046 3045 3042 3040 3040 3041 3041 3041 3039 3040 3039 3039 3042 3040 3041 3043 3041 3039 3037 3034 3034 3033 3031 3030 3025 3019 3015 3010 3005 2999 2994 2989